Time,TemperatureF,DewpointF,PressureIn,WindDirection,WindDirectionDegrees,WindSpeedMPH,WindSpeedGustMPH,Humidity,HourlyPrecipIn,Conditions,Clouds,dailyrainin,SoftwareType,DateUTC
2013-02-22 00:00:00,16.5,13.8,30.16,WNW,283,15.0,21.0,89,0.00,,,0.00,meteohub,2013-02-22 06:00:00,
2013-02-22 00:05:00,16.5,13.6,30.16,WNW,303,19.0,21.0,88,0.00,,,0.00,meteohub,2013-02-22 06:05:00,
2013-02-22 00:10:00,16.5,13.6,30.16,WSW,257,10.0,19.0,88,0.00,,,0.00,meteohub,2013-02-22 06:10:00,
2013-02-22 00:15:00,16.5,13.6,30.16,WNW,298,8.0,19.0,88,0.00,,,0.00,meteohub,2013-02-22 06:15:00,
2013-02-22 00:20:00,16.3,13.5,30.16,WNW,282,13.0,19.0,88,0.00,,,0.00,meteohub,2013-02-22 06:20:00,
2013-02-22 00:25:00,16.2,13.3,30.17,West,278,11.0,18.0,88,0.00,,,0.00,meteohub,2013-02-22 06:25:00,
2013-02-22 00:30:00,16.0,13.1,30.17,WNW,283,11.0,16.0,88,0.00,,,0.00,meteohub,2013-02-22 06:30:00,
2013-02-22 00:35:00,15.8,12.9,30.16,WNW,290,8.0,16.0,88,0.00,,,0.00,meteohub,2013-02-22 06:35:00,
2013-02-22 00:40:00,15.8,12.9,30.16,WNW,287,9.0,15.0,88,0.00,,,0.00,meteohub,2013-02-22 06:40:00,
2013-02-22 00:45:00,15.6,12.7,30.16,West,263,7.0,16.0,88,0.00,,,0.00,meteohub,2013-02-22 06:45:00,
2013-02-22 00:50:00,15.4,12.6,30.17,WNW,298,12.0,17.0,88,0.00,,,0.00,meteohub,2013-02-22 06:50:00,
2013-02-22 00:55:00,15.4,12.6,30.17,NW,306,14.0,17.0,88,0.00,,,0.00,meteohub,2013-02-22 06:55:00,
2013-02-22 01:00:00,15.4,12.6,30.16,NW,304,6.0,17.0,88,0.00,,,0.00,meteohub,2013-02-22 07:00:00,
2013-02-22 01:05:00,15.4,12.6,30.17,WNW,295,6.0,16.0,88,0.00,,,0.00,meteohub,2013-02-22 07:05:00,
2013-02-22 01:10:00,15.4,12.6,30.17,WNW,291,9.0,16.0,88,0.00,,,0.00,meteohub,2013-02-22 07:10:00,
2013-02-22 01:15:00,15.3,12.4,30.17,NW,307,4.0,14.0,88,0.00,,,0.00,meteohub,2013-02-22 07:15:00,
2013-02-22 01:20:00,15.3,12.4,30.18,WNW,301,7.0,15.0,88,0.00,,,0.00,meteohub,2013-02-22 07:20:00,
2013-02-22 01:25:00,15.3,12.4,30.19,WNW,282,6.0,15.0,88,0.00,,,0.00,meteohub,2013-02-22 07:25:00,
2013-02-22 01:30:00,15.1,12.2,30.19,WNW,288,8.0,15.0,88,0.00,,,0.00,meteohub,2013-02-22 07:30:00,
2013-02-22 01:35:00,15.1,12.2,30.19,West,269,9.0,15.0,88,0.00,,,0.00,meteohub,2013-02-22 07:35:00,
2013-02-22 01:40:00,15.1,12.2,30.19,WNW,301,7.0,16.0,88,0.00,,,0.00,meteohub,2013-02-22 07:40:00,
2013-02-22 01:45:00,14.9,12.0,30.19,WNW,293,11.0,16.0,88,0.00,,,0.00,meteohub,2013-02-22 07:45:00,
2013-02-22 01:50:00,14.9,12.0,30.20,West,276,4.0,16.0,88,0.00,,,0.00,meteohub,2013-02-22 07:50:00,
2013-02-22 01:56:00,14.7,11.8,30.21,WNW,283,7.0,16.0,88,0.00,,,0.00,meteohub,2013-02-22 07:56:00,
2013-02-22 02:01:00,14.7,11.8,30.21,West,267,8.0,15.0,88,0.00,,,0.00,meteohub,2013-02-22 08:01:00,
2013-02-22 02:06:00,14.5,11.7,30.22,West,277,7.0,13.0,88,0.00,,,0.00,meteohub,2013-02-22 08:06:00,
2013-02-22 02:11:00,14.5,11.7,30.22,WNW,288,8.0,16.0,88,0.00,,,0.00,meteohub,2013-02-22 08:11:00,
2013-02-22 02:16:00,14.5,11.7,30.22,WNW,283,11.0,16.0,88,0.00,,,0.00,meteohub,2013-02-22 08:16:00,
2013-02-22 02:21:00,14.5,11.7,30.22,West,281,9.0,16.0,88,0.00,,,0.00,meteohub,2013-02-22 08:21:00,
2013-02-22 02:26:00,14.4,11.5,30.22,WNW,288,8.0,16.0,88,0.00,,,0.00,meteohub,2013-02-22 08:26:00,
2013-02-22 02:31:00,14.2,11.3,30.22,West,273,11.0,13.0,88,0.00,,,0.00,meteohub,2013-02-22 08:31:00,
2013-02-22 02:36:00,14.2,11.3,30.22,WNW,295,13.0,16.0,88,0.00,,,0.00,meteohub,2013-02-22 08:36:00,
2013-02-22 02:41:00,14.2,11.3,30.22,WNW,288,13.0,17.0,88,0.00,,,0.00,meteohub,2013-02-22 08:41:00,
2013-02-22 02:46:00,14.0,11.1,30.22,WNW,290,12.0,17.0,88,0.00,,,0.00,meteohub,2013-02-22 08:46:00,
2013-02-22 02:51:00,14.0,11.1,30.22,WNW,287,14.0,16.0,88,0.00,,,0.00,meteohub,2013-02-22 08:51:00,
2013-02-22 02:56:00,13.8,10.9,30.22,WNW,295,11.0,16.0,88,0.00,,,0.00,meteohub,2013-02-22 08:56:00,
2013-02-22 03:01:00,14.0,11.1,30.22,West,270,9.0,17.0,88,0.00,,,0.00,meteohub,2013-02-22 09:01:00,
2013-02-22 03:06:00,14.0,11.1,30.22,NW,319,9.0,17.0,88,0.00,,,0.00,meteohub,2013-02-22 09:06:00,
2013-02-22 03:11:00,14.2,11.3,30.22,WNW,288,8.0,17.0,88,0.00,,,0.00,meteohub,2013-02-22 09:11:00,
2013-02-22 03:16:00,14.2,11.3,30.21,WNW,287,12.0,17.0,88,0.00,,,0.00,meteohub,2013-02-22 09:16:00,
2013-02-22 03:21:00,14.2,10.9,30.21,NW,309,11.0,17.0,87,0.00,,,0.00,meteohub,2013-02-22 09:21:00,
2013-02-22 03:26:00,14.0,10.9,30.21,WNW,298,14.0,17.0,87,0.00,,,0.00,meteohub,2013-02-22 09:26:00,
2013-02-22 03:31:00,13.8,10.8,30.20,WNW,288,11.0,19.0,87,0.00,,,0.00,meteohub,2013-02-22 09:31:00,
2013-02-22 03:36:00,13.8,10.8,30.20,WNW,299,16.0,18.0,87,0.00,,,0.00,meteohub,2013-02-22 09:36:00,
2013-02-22 03:41:00,14.0,11.1,30.20,WNW,300,9.0,18.0,88,0.00,,,0.00,meteohub,2013-02-22 09:41:00,
2013-02-22 03:46:00,14.0,10.9,30.20,WNW,300,10.0,20.0,87,0.00,,,0.00,meteohub,2013-02-22 09:46:00,
2013-02-22 03:51:00,14.0,10.9,30.20,NW,317,6.0,20.0,87,0.00,,,0.00,meteohub,2013-02-22 09:51:00,
2013-02-22 03:56:00,14.0,10.9,30.21,WNW,299,5.0,19.0,87,0.00,,,0.00,meteohub,2013-02-22 09:56:00,
2013-02-22 04:01:00,13.8,10.8,30.21,WNW,292,8.0,18.0,87,0.00,,,0.00,meteohub,2013-02-22 10:01:00,
2013-02-22 04:06:00,13.8,10.8,30.21,NW,314,13.0,19.0,87,0.00,,,0.00,meteohub,2013-02-22 10:06:00,
2013-02-22 04:11:00,13.8,10.8,30.21,WNW,297,11.0,19.0,87,0.00,,,0.00,meteohub,2013-02-22 10:11:00,
2013-02-22 04:16:00,13.8,10.8,30.21,NW,309,11.0,17.0,87,0.00,,,0.00,meteohub,2013-02-22 10:16:00,
2013-02-22 04:21:00,13.6,10.6,30.22,WNW,284,5.0,19.0,87,0.00,,,0.00,meteohub,2013-02-22 10:21:00,
2013-02-22 04:26:00,13.6,10.6,30.23,WNW,284,15.0,19.0,87,0.00,,,0.00,meteohub,2013-02-22 10:26:00,
2013-02-22 04:31:00,13.6,10.6,30.23,WNW,291,8.0,19.0,87,0.00,,,0.00,meteohub,2013-02-22 10:31:00,
2013-02-22 04:36:00,13.5,10.4,30.22,WNW,297,7.0,19.0,87,0.00,,,0.00,meteohub,2013-02-22 10:36:00,
2013-02-22 04:41:00,13.5,10.4,30.22,WNW,298,10.0,19.0,87,0.00,,,0.00,meteohub,2013-02-22 10:41:00,
2013-02-22 04:46:00,13.3,10.2,30.22,WNW,294,8.0,15.0,87,0.00,,,0.00,meteohub,2013-02-22 10:46:00,
2013-02-22 04:51:00,12.9,9.9,30.23,WNW,294,6.0,15.0,87,0.00,,,0.00,meteohub,2013-02-22 10:51:00,
2013-02-22 04:56:00,12.9,9.9,30.23,WNW,282,6.0,15.0,87,0.00,,,0.00,meteohub,2013-02-22 10:56:00,
2013-02-22 05:01:00,12.9,9.9,30.23,WNW,293,9.0,15.0,87,0.00,,,0.00,meteohub,2013-02-22 11:01:00,
2013-02-22 05:06:00,12.9,9.9,30.24,WNW,288,7.0,16.0,87,0.00,,,0.00,meteohub,2013-02-22 11:06:00,
2013-02-22 05:11:00,12.9,9.9,30.24,NW,307,6.0,16.0,87,0.00,,,0.00,meteohub,2013-02-22 11:11:00,
2013-02-22 05:16:00,12.7,9.7,30.24,West,278,8.0,13.0,87,0.00,,,0.00,meteohub,2013-02-22 11:16:00,
2013-02-22 05:21:00,12.7,9.7,30.25,WNW,287,5.0,13.0,87,0.00,,,0.00,meteohub,2013-02-22 11:21:00,
2013-02-22 05:26:00,12.7,9.9,30.25,WNW,295,9.0,13.0,88,0.00,,,0.00,meteohub,2013-02-22 11:26:00,
2013-02-22 05:31:00,12.7,9.7,30.25,West,270,7.0,13.0,87,0.00,,,0.00,meteohub,2013-02-22 11:31:00,
2013-02-22 05:36:00,12.7,9.7,30.26,WNW,295,3.0,11.0,87,0.00,,,0.00,meteohub,2013-02-22 11:36:00,
2013-02-22 05:41:00,12.6,9.5,30.27,WNW,283,5.0,11.0,87,0.00,,,0.00,meteohub,2013-02-22 11:41:00,
2013-02-22 05:46:00,12.6,9.7,30.27,West,273,4.0,11.0,88,0.00,,,0.00,meteohub,2013-02-22 11:46:00,
2013-02-22 05:51:00,12.6,9.5,30.27,West,280,6.0,9.0,87,0.00,,,0.00,meteohub,2013-02-22 11:51:00,
2013-02-22 05:56:00,12.6,9.5,30.27,WNW,285,6.0,11.0,87,0.00,,,0.00,meteohub,2013-02-22 11:56:00,
2013-02-22 06:01:00,12.4,9.3,30.27,WNW,288,3.0,11.0,87,0.00,,,0.00,meteohub,2013-02-22 12:01:00,
2013-02-22 06:06:00,12.4,9.5,30.28,West,281,4.0,11.0,88,0.00,,,0.00,meteohub,2013-02-22 12:06:00,
2013-02-22 06:11:00,12.4,9.3,30.27,WNW,295,7.0,9.0,87,0.00,,,0.00,meteohub,2013-02-22 12:11:00,
2013-02-22 06:16:00,12.4,9.3,30.28,West,277,6.0,11.0,87,0.00,,,0.00,meteohub,2013-02-22 12:16:00,
2013-02-22 06:21:00,12.2,9.1,30.27,West,267,6.0,11.0,87,0.00,,,0.00,meteohub,2013-02-22 12:21:00,
2013-02-22 06:26:00,12.0,9.0,30.27,West,276,7.0,11.0,87,0.00,,,0.00,meteohub,2013-02-22 12:26:00,
2013-02-22 06:31:00,12.0,9.0,30.27,WNW,292,6.0,11.0,87,0.00,,,0.00,meteohub,2013-02-22 12:31:00,
2013-02-22 06:36:00,12.0,9.0,30.27,WNW,287,6.0,10.0,87,0.00,,,0.00,meteohub,2013-02-22 12:36:00,
2013-02-22 06:41:00,11.8,8.8,30.28,West,280,5.0,10.0,87,0.00,,,0.00,meteohub,2013-02-22 12:41:00,
2013-02-22 06:46:00,11.7,8.6,30.28,WNW,294,4.0,10.0,87,0.00,,,0.00,meteohub,2013-02-22 12:46:00,
2013-02-22 06:51:00,11.7,8.6,30.28,WNW,298,6.0,10.0,87,0.00,,,0.00,meteohub,2013-02-22 12:51:00,
2013-02-22 06:56:00,11.5,8.4,30.28,WNW,291,7.0,9.0,87,0.00,,,0.00,meteohub,2013-02-22 12:56:00,
2013-02-22 07:01:00,11.5,8.4,30.28,West,264,5.0,12.0,87,0.00,,,0.00,meteohub,2013-02-22 13:01:00,
2013-02-22 07:06:00,11.3,8.2,30.28,WNW,301,9.0,14.0,87,0.00,,,0.00,meteohub,2013-02-22 13:06:00,
2013-02-22 07:12:00,10.9,7.9,30.27,WNW,296,12.0,14.0,87,0.00,,,0.00,meteohub,2013-02-22 13:12:00,
2013-02-22 07:17:00,10.9,7.9,30.27,WNW,294,9.0,14.0,87,0.00,,,0.00,meteohub,2013-02-22 13:17:00,
2013-02-22 07:22:00,10.9,7.9,30.27,NW,310,6.0,13.0,87,0.00,,,0.00,meteohub,2013-02-22 13:22:00,
2013-02-22 07:27:00,10.9,7.9,30.27,WNW,298,7.0,13.0,87,0.00,,,0.00,meteohub,2013-02-22 13:27:00,
2013-02-22 07:32:00,10.9,7.9,30.27,NW,305,9.0,13.0,87,0.00,,,0.00,meteohub,2013-02-22 13:32:00,
2013-02-22 07:37:00,11.1,8.1,30.27,WNW,295,6.0,12.0,87,0.00,,,0.00,meteohub,2013-02-22 13:37:00,
2013-02-22 07:42:00,11.1,7.7,30.27,NW,306,4.0,12.0,86,0.00,,,0.00,meteohub,2013-02-22 13:42:00,
2013-02-22 07:47:00,11.3,7.9,30.27,NW,309,4.0,13.0,86,0.00,,,0.00,meteohub,2013-02-22 13:47:00,
2013-02-22 07:52:00,11.7,8.2,30.27,WNW,301,3.0,15.0,86,0.00,,,0.00,meteohub,2013-02-22 13:52:00,
2013-02-22 07:57:00,11.8,8.4,30.28,WNW,291,8.0,15.0,86,0.00,,,0.00,meteohub,2013-02-22 13:57:00,
2013-02-22 08:02:00,12.0,8.6,30.28,WNW,288,6.0,15.0,86,0.00,,,0.00,meteohub,2013-02-22 14:02:00,
2013-02-22 08:07:00,12.4,9.0,30.29,WNW,290,9.0,13.0,86,0.00,,,0.00,meteohub,2013-02-22 14:07:00,
2013-02-22 08:12:00,12.7,9.3,30.30,WNW,299,5.0,13.0,86,0.00,,,0.00,meteohub,2013-02-22 14:12:00,
2013-02-22 08:17:00,13.1,9.5,30.30,WNW,297,7.0,12.0,85,0.00,,,0.00,meteohub,2013-02-22 14:17:00,
2013-02-22 08:22:00,13.5,9.9,30.31,West,281,6.0,12.0,85,0.00,,,0.00,meteohub,2013-02-22 14:22:00,
2013-02-22 08:27:00,13.8,9.9,30.31,WNW,297,6.0,12.0,84,0.00,,,0.00,meteohub,2013-02-22 14:27:00,
2013-02-22 08:32:00,14.2,10.2,30.32,WNW,288,6.0,12.0,84,0.00,,,0.00,meteohub,2013-02-22 14:32:00,
2013-02-22 08:37:00,14.4,10.2,30.33,West,269,5.0,10.0,83,0.00,,,0.00,meteohub,2013-02-22 14:37:00,
2013-02-22 08:42:00,14.4,10.2,30.34,WNW,283,7.0,10.0,83,0.00,,,0.00,meteohub,2013-02-22 14:42:00,
2013-02-22 08:47:00,14.5,10.4,30.34,WNW,292,3.0,12.0,83,0.00,,,0.00,meteohub,2013-02-22 14:47:00,
2013-02-22 08:52:00,14.7,10.6,30.35,WNW,291,8.0,12.0,83,0.00,,,0.00,meteohub,2013-02-22 14:52:00,
2013-02-22 08:57:00,14.7,10.6,30.35,WNW,301,8.0,12.0,83,0.00,,,0.00,meteohub,2013-02-22 14:57:00,
2013-02-22 09:02:00,14.7,10.6,30.35,WNW,301,4.0,12.0,83,0.00,,,0.00,meteohub,2013-02-22 15:02:00,
2013-02-22 09:07:00,15.1,10.6,30.35,WNW,303,9.0,12.0,82,0.00,,,0.00,meteohub,2013-02-22 15:07:00,
2013-02-22 09:12:00,15.1,10.6,30.36,WNW,297,6.0,12.0,82,0.00,,,0.00,meteohub,2013-02-22 15:12:00,
2013-02-22 09:17:00,15.3,10.8,30.35,WNW,300,7.0,12.0,82,0.00,,,0.00,meteohub,2013-02-22 15:17:00,
2013-02-22 09:22:00,15.4,10.9,30.36,NW,309,4.0,12.0,82,0.00,,,0.00,meteohub,2013-02-22 15:22:00,
2013-02-22 09:26:00,15.6,11.1,30.36,WNW,294,8.0,12.0,82,0.00,,,0.00,meteohub,2013-02-22 15:26:00,
2013-02-22 09:32:00,15.8,11.3,30.36,NW,307,3.0,12.0,82,0.00,,,0.00,meteohub,2013-02-22 15:32:00,
2013-02-22 09:37:00,16.3,11.5,30.37,WNW,298,4.0,12.0,81,0.00,,,0.00,meteohub,2013-02-22 15:37:00,
2013-02-22 09:42:00,16.9,11.8,30.37,West,280,4.0,10.0,80,0.00,,,0.00,meteohub,2013-02-22 15:42:00,
2013-02-22 09:47:00,17.1,12.0,30.37,WNW,300,4.0,8.0,80,0.00,,,0.00,meteohub,2013-02-22 15:47:00,
2013-02-22 09:52:00,17.6,12.6,30.38,WNW,295,4.0,8.0,80,0.00,,,0.00,meteohub,2013-02-22 15:52:00,
2013-02-22 09:57:00,17.8,12.7,30.38,NW,311,4.0,8.0,80,0.00,,,0.00,meteohub,2013-02-22 15:57:00,
2013-02-22 10:02:00,18.0,12.9,30.38,WSW,257,4.0,7.0,80,0.00,,,0.00,meteohub,2013-02-22 16:02:00,
2013-02-22 10:07:00,18.1,12.7,30.37,WNW,290,2.0,7.0,79,0.00,,,0.00,meteohub,2013-02-22 16:07:00,
2013-02-22 10:12:00,18.7,13.3,30.37,West,280,7.0,7.0,79,0.00,,,0.00,meteohub,2013-02-22 16:12:00,
2013-02-22 10:17:00,18.5,12.7,30.37,NW,319,4.0,9.0,78,0.00,,,0.00,meteohub,2013-02-22 16:17:00,
2013-02-22 10:22:00,18.5,13.1,30.37,WNW,285,4.0,9.0,79,0.00,,,0.00,meteohub,2013-02-22 16:22:00,
2013-02-22 10:27:00,18.9,13.5,30.37,WNW,294,5.0,9.0,79,0.00,,,0.00,meteohub,2013-02-22 16:27:00,
2013-02-22 10:32:00,19.0,13.3,30.37,NW,314,2.0,7.0,78,0.00,,,0.00,meteohub,2013-02-22 16:32:00,
2013-02-22 10:37:00,19.4,13.6,30.37,WNW,298,4.0,7.0,78,0.00,,,0.00,meteohub,2013-02-22 16:37:00,
2013-02-22 10:42:00,19.4,13.5,30.38,West,277,5.0,7.0,77,0.00,,,0.00,meteohub,2013-02-22 16:42:00,
2013-02-22 10:47:00,19.0,12.7,30.38,West,276,4.0,7.0,76,0.00,,,0.00,meteohub,2013-02-22 16:47:00,
2013-02-22 10:52:00,19.2,12.9,30.38,West,270,4.0,7.0,76,0.00,,,0.00,meteohub,2013-02-22 16:52:00,
2013-02-22 10:57:00,19.0,12.7,30.38,West,259,5.0,7.0,76,0.00,,,0.00,meteohub,2013-02-22 16:57:00,
2013-02-22 11:02:00,18.9,12.9,30.38,West,276,3.0,8.0,77,0.00,,,0.00,meteohub,2013-02-22 17:02:00,
2013-02-22 11:07:00,19.4,13.6,30.38,WNW,295,7.0,8.0,78,0.00,,,0.00,meteohub,2013-02-22 17:07:00,
2013-02-22 11:12:00,19.2,13.3,30.38,West,267,5.0,8.0,77,0.00,,,0.00,meteohub,2013-02-22 17:12:00,
2013-02-22 11:17:00,19.6,13.3,30.39,West,260,7.0,9.0,76,0.00,,,0.00,meteohub,2013-02-22 17:17:00,
2013-02-22 11:22:00,19.8,13.6,30.39,West,262,4.0,9.0,77,0.00,,,0.00,meteohub,2013-02-22 17:22:00,
2013-02-22 11:27:00,20.3,14.2,30.39,WNW,295,3.0,8.0,77,0.00,,,0.00,meteohub,2013-02-22 17:27:00,
2013-02-22 11:32:00,20.7,14.0,30.39,WNW,286,2.0,7.0,75,0.00,,,0.00,meteohub,2013-02-22 17:32:00,
2013-02-22 11:37:00,20.8,14.5,30.39,WSW,246,4.0,6.0,76,0.00,,,0.00,meteohub,2013-02-22 17:37:00,
2013-02-22 11:42:00,21.0,14.4,30.39,West,260,4.0,6.0,75,0.00,,,0.00,meteohub,2013-02-22 17:42:00,
2013-02-22 11:47:00,21.0,14.0,30.40,WSW,255,0.0,6.0,74,0.00,,,0.00,meteohub,2013-02-22 17:47:00,
2013-02-22 11:52:00,21.4,14.0,30.40,West,264,3.0,5.0,73,0.00,,,0.00,meteohub,2013-02-22 17:52:00,
2013-02-22 11:57:00,21.4,14.4,30.40,NW,309,2.0,7.0,74,0.00,,,0.00,meteohub,2013-02-22 17:57:00,
2013-02-22 12:02:00,21.9,15.3,30.40,NW,307,0.0,7.0,75,0.00,,,0.00,meteohub,2013-02-22 18:02:00,
2013-02-22 12:07:00,22.3,15.3,30.40,West,281,4.0,7.0,74,0.00,,,0.00,meteohub,2013-02-22 18:07:00,
2013-02-22 12:12:00,22.5,15.8,30.40,WNW,293,3.0,6.0,75,0.00,,,0.00,meteohub,2013-02-22 18:12:00,
2013-02-22 12:17:00,22.6,15.3,30.40,West,262,2.0,6.0,73,0.00,,,0.00,meteohub,2013-02-22 18:17:00,
2013-02-22 12:22:00,22.6,15.6,30.39,West,263,3.0,6.0,74,0.00,,,0.00,meteohub,2013-02-22 18:22:00,
2013-02-22 12:27:00,22.8,15.4,30.39,West,277,3.0,6.0,73,0.00,,,0.00,meteohub,2013-02-22 18:27:00,
2013-02-22 12:32:00,23.2,15.8,30.39,West,266,0.0,6.0,73,0.00,,,0.00,meteohub,2013-02-22 18:32:00,
2013-02-22 12:37:00,23.5,15.8,30.39,WSW,257,2.0,6.0,72,0.00,,,0.00,meteohub,2013-02-22 18:37:00,
2013-02-22 12:42:00,23.7,16.0,30.39,West,274,6.0,6.0,72,0.00,,,0.00,meteohub,2013-02-22 18:42:00,
2013-02-22 12:47:00,23.4,15.4,30.39,West,279,7.0,8.0,71,0.00,,,0.00,meteohub,2013-02-22 18:47:00,
2013-02-22 12:52:00,23.7,16.7,30.38,West,274,6.0,8.0,74,0.00,,,0.00,meteohub,2013-02-22 18:52:00,
2013-02-22 12:57:00,23.9,16.2,30.38,West,263,4.0,7.0,72,0.00,,,0.00,meteohub,2013-02-22 18:57:00,
2013-02-22 13:02:00,24.1,16.3,30.38,WNW,298,6.0,7.0,72,0.00,,,0.00,meteohub,2013-02-22 19:02:00,
2013-02-22 13:07:00,24.1,16.0,30.38,WNW,283,5.0,9.0,71,0.00,,,0.00,meteohub,2013-02-22 19:07:00,
2013-02-22 13:12:00,24.6,16.5,30.38,WNW,285,7.0,9.0,71,0.00,,,0.00,meteohub,2013-02-22 19:12:00,
2013-02-22 13:17:00,24.6,16.2,30.38,WNW,286,4.0,9.0,70,0.00,,,0.00,meteohub,2013-02-22 19:17:00,
2013-02-22 13:22:00,24.8,16.7,30.38,NW,304,5.0,8.0,71,0.00,,,0.00,meteohub,2013-02-22 19:22:00,
2013-02-22 13:27:00,24.3,14.5,30.37,WNW,291,7.0,12.0,66,0.00,,,0.00,meteohub,2013-02-22 19:27:00,
2013-02-22 13:32:00,24.3,16.0,30.37,WNW,294,5.0,13.0,70,0.00,,,0.00,meteohub,2013-02-22 19:32:00,
2013-02-22 13:37:00,24.6,16.0,30.37,WNW,283,4.0,13.0,69,0.00,,,0.00,meteohub,2013-02-22 19:37:00,
2013-02-22 13:42:00,24.6,16.0,30.37,WNW,289,7.0,12.0,69,0.00,,,0.00,meteohub,2013-02-22 19:42:00,
2013-02-22 13:47:00,24.4,15.8,30.36,West,274,6.0,10.0,69,0.00,,,0.00,meteohub,2013-02-22 19:47:00,
2013-02-22 13:52:00,24.4,15.4,30.36,WNW,301,3.0,10.0,68,0.00,,,0.00,meteohub,2013-02-22 19:52:00,
2013-02-22 13:57:00,24.6,15.3,30.36,WNW,300,3.0,10.0,67,0.00,,,0.00,meteohub,2013-02-22 19:57:00,
2013-02-22 14:02:00,24.8,16.3,30.36,NNW,332,3.0,9.0,70,0.00,,,0.00,meteohub,2013-02-22 20:02:00,
2013-02-22 14:07:00,24.6,15.6,30.36,WNW,301,3.0,9.0,68,0.00,,,0.00,meteohub,2013-02-22 20:07:00,
2013-02-22 14:12:00,25.2,15.8,30.36,NW,304,5.0,8.0,67,0.00,,,0.00,meteohub,2013-02-22 20:12:00,
2013-02-22 14:17:00,25.0,16.0,30.36,NW,304,4.0,8.0,68,0.00,,,0.00,meteohub,2013-02-22 20:17:00,
2013-02-22 14:22:00,25.0,15.3,30.36,WNW,301,6.0,8.0,66,0.00,,,0.00,meteohub,2013-02-22 20:22:00,
2013-02-22 14:27:00,25.2,16.3,30.36,WNW,298,5.0,8.0,69,0.00,,,0.00,meteohub,2013-02-22 20:27:00,
2013-02-22 14:32:00,25.2,15.8,30.36,WNW,300,3.0,8.0,67,0.00,,,0.00,meteohub,2013-02-22 20:32:00,
2013-02-22 14:37:00,25.2,15.4,30.36,NW,318,4.0,10.0,66,0.00,,,0.00,meteohub,2013-02-22 20:37:00,
2013-02-22 14:42:00,25.0,15.6,30.35,West,280,6.0,10.0,67,0.00,,,0.00,meteohub,2013-02-22 20:42:00,
2013-02-22 14:47:00,24.8,15.4,30.35,WNW,295,7.0,11.0,67,0.00,,,0.00,meteohub,2013-02-22 20:47:00,
2013-02-22 14:52:00,24.8,15.4,30.35,WNW,298,8.0,11.0,67,0.00,,,0.00,meteohub,2013-02-22 20:52:00,
2013-02-22 14:57:00,25.2,16.3,30.35,NW,321,7.0,11.0,69,0.00,,,0.00,meteohub,2013-02-22 20:57:00,
2013-02-22 15:02:00,25.2,15.4,30.35,NNW,338,3.0,11.0,66,0.00,,,0.00,meteohub,2013-02-22 21:02:00,
2013-02-22 15:07:00,25.2,16.2,30.35,NW,312,5.0,10.0,68,0.00,,,0.00,meteohub,2013-02-22 21:07:00,
2013-02-22 15:12:00,25.3,15.6,30.35,NW,311,5.0,9.0,66,0.00,,,0.00,meteohub,2013-02-22 21:12:00,
2013-02-22 15:17:00,25.2,15.8,30.35,NW,307,6.0,8.0,67,0.00,,,0.00,meteohub,2013-02-22 21:17:00,
2013-02-22 15:22:00,25.3,16.0,30.35,NW,316,2.0,8.0,67,0.00,,,0.00,meteohub,2013-02-22 21:22:00,
2013-02-22 15:27:00,25.5,16.2,30.35,NW,311,4.0,8.0,67,0.00,,,0.00,meteohub,2013-02-22 21:27:00,
2013-02-22 15:32:00,25.7,16.9,30.35,West,263,5.0,8.0,69,0.00,,,0.00,meteohub,2013-02-22 21:32:00,
2013-02-22 15:37:00,25.5,16.2,30.35,West,266,9.0,9.0,67,0.00,,,0.00,meteohub,2013-02-22 21:37:00,
2013-02-22 15:42:00,25.5,16.5,30.35,WSW,246,5.0,9.0,68,0.00,,,0.00,meteohub,2013-02-22 21:42:00,
2013-02-22 15:47:00,25.5,16.2,30.35,WNW,287,1.0,9.0,67,0.00,,,0.00,meteohub,2013-02-22 21:47:00,
2013-02-22 15:52:00,25.7,16.9,30.35,WNW,287,2.0,10.0,69,0.00,,,0.00,meteohub,2013-02-22 21:52:00,
2013-02-22 15:57:00,25.2,15.8,30.35,NW,314,2.0,10.0,67,0.00,,,0.00,meteohub,2013-02-22 21:57:00,
2013-02-22 16:02:00,25.0,16.3,30.35,WNW,300,7.0,8.0,69,0.00,,,0.00,meteohub,2013-02-22 22:02:00,
2013-02-22 16:07:00,24.6,15.6,30.35,NW,307,7.0,8.0,68,0.00,,,0.00,meteohub,2013-02-22 22:07:00,
2013-02-22 16:12:00,24.4,15.4,30.35,WNW,289,4.0,9.0,68,0.00,,,0.00,meteohub,2013-02-22 22:12:00,
2013-02-22 16:17:00,24.4,15.8,30.35,NW,304,7.0,9.0,69,0.00,,,0.00,meteohub,2013-02-22 22:17:00,
2013-02-22 16:22:00,24.4,15.8,30.35,West,262,4.0,9.0,69,0.00,,,0.00,meteohub,2013-02-22 22:22:00,
2013-02-22 16:27:00,24.6,16.2,30.35,WSW,256,4.0,8.0,70,0.00,,,0.00,meteohub,2013-02-22 22:27:00,
2013-02-22 16:32:00,24.4,16.3,30.35,West,275,6.0,8.0,71,0.00,,,0.00,meteohub,2013-02-22 22:32:00,
2013-02-22 16:37:00,24.4,16.3,30.35,WNW,291,7.0,8.0,71,0.00,,,0.00,meteohub,2013-02-22 22:37:00,
2013-02-22 16:42:00,24.3,16.2,30.35,WNW,285,4.0,8.0,71,0.00,,,0.00,meteohub,2013-02-22 22:42:00,
2013-02-22 16:47:00,24.1,16.3,30.35,WNW,293,3.0,8.0,72,0.00,,,0.00,meteohub,2013-02-22 22:47:00,
2013-02-22 16:52:00,24.3,16.2,30.35,WSW,257,8.0,8.0,71,0.00,,,0.00,meteohub,2013-02-22 22:52:00,
2013-02-22 16:57:00,24.4,16.7,30.35,West,277,6.0,9.0,72,0.00,,,0.00,meteohub,2013-02-22 22:57:00,
2013-02-22 17:02:00,24.8,16.3,30.35,WNW,284,5.0,9.0,70,0.00,,,0.00,meteohub,2013-02-22 23:02:00,
2013-02-22 17:07:00,24.6,16.0,30.35,NW,304,6.0,9.0,69,0.00,,,0.00,meteohub,2013-02-22 23:07:00,
2013-02-22 17:12:00,24.3,15.6,30.34,WNW,302,5.0,8.0,69,0.00,,,0.00,meteohub,2013-02-22 23:12:00,
2013-02-22 17:17:00,24.1,15.8,30.34,NW,321,4.0,8.0,70,0.00,,,0.00,meteohub,2013-02-22 23:17:00,
2013-02-22 17:22:00,23.7,15.4,30.34,NW,307,6.0,8.0,70,0.00,,,0.00,meteohub,2013-02-22 23:22:00,
2013-02-22 17:27:00,23.5,15.4,30.34,WNW,294,5.0,8.0,71,0.00,,,0.00,meteohub,2013-02-22 23:27:00,
2013-02-22 17:32:00,23.5,15.4,30.34,WNW,290,8.0,9.0,71,0.00,,,0.00,meteohub,2013-02-22 23:32:00,
2013-02-22 17:37:00,23.4,15.4,30.34,NW,316,3.0,10.0,71,0.00,,,0.00,meteohub,2013-02-22 23:37:00,
2013-02-22 17:42:00,23.2,15.4,30.34,WNW,297,4.0,10.0,72,0.00,,,0.00,meteohub,2013-02-22 23:42:00,
2013-02-22 17:47:00,23.2,15.4,30.34,WNW,297,1.0,10.0,72,0.00,,,0.00,meteohub,2013-02-22 23:47:00,
2013-02-22 17:52:00,23.0,15.6,30.34,WNW,300,2.0,7.0,73,0.00,,,0.00,meteohub,2013-02-22 23:52:00,
2013-02-22 17:57:00,23.0,15.6,30.34,NW,312,2.0,7.0,73,0.00,,,0.00,meteohub,2013-02-22 23:57:00,
2013-02-22 18:02:00,23.0,15.6,30.35,WNW,285,1.0,4.0,73,0.00,,,0.00,meteohub,2013-02-23 00:02:00,
2013-02-22 18:07:00,23.0,15.3,30.35,NW,307,3.0,6.0,72,0.00,,,0.00,meteohub,2013-02-23 00:07:00,
2013-02-22 18:12:00,23.0,15.6,30.35,WNW,285,2.0,6.0,73,0.00,,,0.00,meteohub,2013-02-23 00:12:00,
2013-02-22 18:17:00,22.8,15.4,30.35,West,269,0.0,6.0,73,0.00,,,0.00,meteohub,2013-02-23 00:17:00,
2013-02-22 18:22:00,22.6,15.3,30.35,WSW,253,0.0,5.0,73,0.00,,,0.00,meteohub,2013-02-23 00:22:00,
2013-02-22 18:27:00,22.5,15.4,30.35,WSW,255,0.0,3.0,74,0.00,,,0.00,meteohub,2013-02-23 00:27:00,
2013-02-22 18:32:00,22.1,15.1,30.35,West,274,0.0,2.0,74,0.00,,,0.00,meteohub,2013-02-23 00:32:00,
2013-02-22 18:37:00,21.9,14.9,30.36,West,264,0.0,0.0,74,0.00,,,0.00,meteohub,2013-02-23 00:37:00,
2013-02-22 18:42:00,21.9,15.3,30.36,West,271,2.0,0.0,75,0.00,,,0.00,meteohub,2013-02-23 00:42:00,
2013-02-22 18:47:00,21.7,15.1,30.36,WSW,238,0.0,3.0,75,0.00,,,0.00,meteohub,2013-02-23 00:47:00,
2013-02-22 18:52:00,21.7,15.1,30.36,West,267,2.0,3.0,75,0.00,,,0.00,meteohub,2013-02-23 00:52:00,
2013-02-22 18:57:00,21.6,14.9,30.36,West,266,1.0,2.0,75,0.00,,,0.00,meteohub,2013-02-23 00:57:00,
2013-02-22 19:02:00,21.6,14.9,30.36,West,266,1.0,2.0,75,0.00,,,0.00,meteohub,2013-02-23 01:02:00,
2013-02-22 19:07:00,21.6,14.9,30.36,West,259,2.0,2.0,75,0.00,,,0.00,meteohub,2013-02-23 01:07:00,
2013-02-22 19:12:00,21.4,14.7,30.36,West,267,2.0,3.0,75,0.00,,,0.00,meteohub,2013-02-23 01:12:00,
2013-02-22 19:17:00,21.4,14.7,30.36,WSW,257,3.0,3.0,75,0.00,,,0.00,meteohub,2013-02-23 01:17:00,
2013-02-22 19:22:00,21.2,15.1,30.36,WSW,250,1.0,3.0,77,0.00,,,0.00,meteohub,2013-02-23 01:22:00,
2013-02-22 19:27:00,21.0,14.9,30.36,WSW,243,1.0,3.0,77,0.00,,,0.00,meteohub,2013-02-23 01:27:00,
2013-02-22 19:32:00,21.0,15.3,30.37,West,260,2.0,3.0,78,0.00,,,0.00,meteohub,2013-02-23 01:32:00,
2013-02-22 19:37:00,20.8,15.4,30.37,WSW,255,0.0,2.0,79,0.00,,,0.00,meteohub,2013-02-23 01:37:00,
2013-02-22 19:42:00,20.7,15.3,30.37,West,269,1.0,2.0,79,0.00,,,0.00,meteohub,2013-02-23 01:42:00,
2013-02-22 19:47:00,20.5,15.1,30.37,WSW,252,2.0,2.0,79,0.00,,,0.00,meteohub,2013-02-23 01:47:00,
2013-02-22 19:52:00,20.5,15.1,30.37,West,263,3.0,4.0,79,0.00,,,0.00,meteohub,2013-02-23 01:52:00,
2013-02-22 19:57:00,20.1,14.7,30.37,SW,231,0.0,4.0,79,0.00,,,0.00,meteohub,2013-02-23 01:57:00,
2013-02-22 20:02:00,19.9,14.7,30.37,WSW,257,2.0,4.0,80,0.00,,,0.00,meteohub,2013-02-23 02:02:00,
2013-02-22 20:07:00,19.8,14.4,30.37,WSW,255,3.0,4.0,79,0.00,,,0.00,meteohub,2013-02-23 02:07:00,
2013-02-22 20:12:00,19.4,14.0,30.37,WSW,257,3.0,5.0,79,0.00,,,0.00,meteohub,2013-02-23 02:12:00,
2013-02-22 20:17:00,19.2,14.0,30.37,West,273,2.0,5.0,80,0.00,,,0.00,meteohub,2013-02-23 02:17:00,
2013-02-22 20:22:00,19.2,14.0,30.36,WNW,284,2.0,5.0,80,0.00,,,0.00,meteohub,2013-02-23 02:22:00,
2013-02-22 20:27:00,19.2,14.0,30.36,WNW,297,1.0,4.0,80,0.00,,,0.00,meteohub,2013-02-23 02:27:00,
2013-02-22 20:32:00,19.4,14.2,30.37,WNW,288,1.0,4.0,80,0.00,,,0.00,meteohub,2013-02-23 02:32:00,
2013-02-22 20:37:00,19.4,14.2,30.37,West,273,1.0,4.0,80,0.00,,,0.00,meteohub,2013-02-23 02:37:00,
2013-02-22 20:42:00,19.4,14.2,30.37,WNW,288,1.0,3.0,80,0.00,,,0.00,meteohub,2013-02-23 02:42:00,
2013-02-22 20:47:00,19.2,14.0,30.37,West,273,2.0,2.0,80,0.00,,,0.00,meteohub,2013-02-23 02:47:00,
2013-02-22 20:52:00,19.2,14.0,30.37,West,276,1.0,2.0,80,0.00,,,0.00,meteohub,2013-02-23 02:52:00,
2013-02-22 20:57:00,19.2,14.0,30.38,West,269,2.0,3.0,80,0.00,,,0.00,meteohub,2013-02-23 02:57:00,
2013-02-22 21:02:00,19.2,14.0,30.37,WNW,283,2.0,3.0,80,0.00,,,0.00,meteohub,2013-02-23 03:02:00,
2013-02-22 21:07:00,19.0,13.8,30.38,West,269,2.0,3.0,80,0.00,,,0.00,meteohub,2013-02-23 03:07:00,
2013-02-22 21:12:00,19.0,14.2,30.38,West,278,1.0,3.0,81,0.00,,,0.00,meteohub,2013-02-23 03:12:00,
2013-02-22 21:17:00,18.9,14.0,30.38,West,280,3.0,4.0,81,0.00,,,0.00,meteohub,2013-02-23 03:17:00,
2013-02-22 21:22:00,18.9,14.0,30.38,West,262,3.0,4.0,81,0.00,,,0.00,meteohub,2013-02-23 03:22:00,
2013-02-22 21:27:00,18.7,13.8,30.38,West,263,3.0,5.0,81,0.00,,,0.00,meteohub,2013-02-23 03:27:00,
2013-02-22 21:32:00,18.5,14.0,30.38,West,281,3.0,5.0,82,0.00,,,0.00,meteohub,2013-02-23 03:32:00,
2013-02-22 21:37:00,18.3,13.8,30.38,WNW,294,3.0,5.0,82,0.00,,,0.00,meteohub,2013-02-23 03:37:00,
2013-02-22 21:42:00,18.3,13.8,30.38,West,280,3.0,4.0,82,0.00,,,0.00,meteohub,2013-02-23 03:42:00,
2013-02-22 21:47:00,18.3,13.8,30.38,West,260,2.0,4.0,82,0.00,,,0.00,meteohub,2013-02-23 03:47:00,
2013-02-22 21:52:00,18.1,13.6,30.38,WSW,255,3.0,4.0,82,0.00,,,0.00,meteohub,2013-02-23 03:52:00,
2013-02-22 21:57:00,18.1,13.6,30.38,West,263,2.0,5.0,82,0.00,,,0.00,meteohub,2013-02-23 03:57:00,
2013-02-22 22:02:00,18.1,13.8,30.38,West,260,2.0,5.0,83,0.00,,,0.00,meteohub,2013-02-23 04:02:00,
2013-02-22 22:07:00,18.1,13.8,30.38,West,276,2.0,5.0,83,0.00,,,0.00,meteohub,2013-02-23 04:07:00,
2013-02-22 22:12:00,18.0,13.5,30.38,West,281,2.0,3.0,82,0.00,,,0.00,meteohub,2013-02-23 04:12:00,
2013-02-22 22:17:00,17.6,13.1,30.38,West,262,2.0,5.0,82,0.00,,,0.00,meteohub,2013-02-23 04:17:00,
2013-02-22 22:22:00,17.2,12.9,30.38,WSW,257,2.0,5.0,83,0.00,,,0.00,meteohub,2013-02-23 04:22:00,
2013-02-22 22:27:00,17.1,12.7,30.38,WSW,255,2.0,5.0,83,0.00,,,0.00,meteohub,2013-02-23 04:27:00,
2013-02-22 22:32:00,16.9,12.9,30.38,West,267,2.0,3.0,84,0.00,,,0.00,meteohub,2013-02-23 04:32:00,
2013-02-22 22:37:00,16.9,12.9,30.38,West,273,2.0,3.0,84,0.00,,,0.00,meteohub,2013-02-23 04:37:00,
2013-02-22 22:42:00,16.7,12.7,30.38,WNW,283,3.0,4.0,84,0.00,,,0.00,meteohub,2013-02-23 04:42:00,
2013-02-22 22:47:00,16.7,12.7,30.38,WSW,257,3.0,5.0,84,0.00,,,0.00,meteohub,2013-02-23 04:47:00,
2013-02-22 22:52:00,16.5,12.6,30.39,WSW,252,3.0,5.0,84,0.00,,,0.00,meteohub,2013-02-23 04:52:00,
2013-02-22 22:57:00,16.5,12.6,30.39,WSW,257,2.0,5.0,84,0.00,,,0.00,meteohub,2013-02-23 04:57:00,
2013-02-22 23:00:00,16.5,12.7,30.39,West,266,1.0,5.0,85,0.00,,,0.00,meteohub,2013-02-23 05:00:00,
2013-02-22 23:05:00,16.7,12.9,30.38,WSW,257,1.0,4.0,85,0.00,,,0.00,meteohub,2013-02-23 05:05:00,
2013-02-22 23:10:00,16.5,12.7,30.38,WSW,255,2.0,3.0,85,0.00,,,0.00,meteohub,2013-02-23 05:10:00,
2013-02-22 23:15:00,16.5,12.7,30.38,West,273,2.0,3.0,85,0.00,,,0.00,meteohub,2013-02-23 05:15:00,
2013-02-22 23:20:00,16.5,12.7,30.38,West,274,3.0,3.0,85,0.00,,,0.00,meteohub,2013-02-23 05:20:00,
2013-02-22 23:25:00,16.9,13.1,30.38,WSW,246,3.0,3.0,85,0.00,,,0.00,meteohub,2013-02-23 05:25:00,
2013-02-22 23:30:00,16.7,12.9,30.38,WSW,255,1.0,5.0,85,0.00,,,0.00,meteohub,2013-02-23 05:30:00,
2013-02-22 23:35:00,16.5,12.7,30.37,WSW,257,1.0,5.0,85,0.00,,,0.00,meteohub,2013-02-23 05:35:00,
2013-02-22 23:40:00,16.5,12.7,30.37,WSW,257,1.0,4.0,85,0.00,,,0.00,meteohub,2013-02-23 05:40:00,
2013-02-22 23:45:00,16.3,12.9,30.38,WSW,255,2.0,2.0,86,0.00,,,0.00,meteohub,2013-02-23 05:45:00,
2013-02-22 23:50:00,16.2,12.9,30.37,WSW,250,3.0,3.0,87,0.00,,,0.00,meteohub,2013-02-23 05:50:00,
2013-02-22 23:55:00,16.0,12.7,30.37,WSW,249,2.0,3.0,87,0.00,,,0.00,meteohub,2013-02-23 05:55:00,